Hourly Weather Roundup
Issued by NWS Central Illinois

Home | Current Version | Previous Version | Text Only | Print | Product List | Glossary On
Versions: 1 2 3 4 5 6 7 8 9 10 11 12 13 14 15 16 17 18 19 20 21 22 23 24 25 26 27 28 29 30 31 32 33 34 35 36 37 38 39 40 41 42 43 44 45 46 47 48 49 50
000
NZUS43 KILX 202010
HWRILX

Area Weather Roundup
National Weather Service Lincoln IL
300 PM CDT SUN AUG 20 2017

NOTE:  "FAIR" indicates few or no clouds below 12,000 feet, with
       no sigificant weather and/or obstructions to visibility.


CITY           SKY/WX    TMP DP  RH WIND       PRES   REMARKS
Bloomington    CLOUDY    83  73  72 E5        30.02F HX  89
Champaign      MOSUNNY   90  70  51 W6        30.02F HX  95
Danville       PTSUNNY   88  71  56 CALM      30.01F HX  93
Decatur        SUNNY     88  69  53 S6        30.00F HX  92
Effingham      MOSUNNY   92  72  51 W8        30.03F HX  99
Flora          MOSUNNY   93  75  56 S7        30.01F HX 104
Galesburg      CLOUDY    80  70  71 E8        29.97F HX  84
Jacksonville   CLOUDY    87  70  56 SE9G16    29.98R HX  92
Lacon          CLOUDY    79  71  77 E12       29.97F HX  82
Lawrenceville  MOSUNNY   92  72  51 SW8       30.01F HX  99
Litchfield     CLOUDY    87  72  61 SE6       30.00F HX  93
$$


CITY           SKY/WX    TMP DP  RH WIND       PRES   REMARKS
Lincoln        CLOUDY    87  76  69 SE3       29.99F HX  96
Macomb         MOSUNNY   85  71  62 SE9       29.99F HX  89
Mattoon        MOSUNNY   89  72  56 SW8       30.01F HX  96
Mt Carmel AP   MOSUNNY   89  73  59 S9        30.01F HX  97
Olney-Noble AP MOSUNNY   92  68  45 W7        30.01F HX  96
Paris AP       MOSUNNY   89  71  54 S3        30.03F HX  95
Peoria         CLOUDY    86  69  56 SE13      29.98F HX  90
Pontiac        CLOUDY    82  72  72 CALM      30.02F HX  86
Rantoul        MOSUNNY   91  72  53 S7        30.02F HX  98
Robinson       MOSUNNY   89  75  62 NW6       30.02F HX  99
Springfield    CLOUDY    89  73  59 SE8       29.97F HX  97
Taylorville    MOSUNNY   86  73  65 SE9       29.99F HX  94
$$

...REGIONAL REPORTS...


CITY           SKY/WX    TMP DP  RH WIND       PRES   REMARKS
Chicago O`Hare CLOUDY    88  62  41 W8        30.00S HX  88
Kankakee       CLOUDY    85  70  60 SW5       30.04S HX  90
Moline         MOSUNNY   77  68  73 E8        29.96F
Mount Sterling SUNNY     85  70  61 SE9       29.98S HX  89
Mount Vernon     N/A     91  77  63 S9        30.00F HX 104
Pittsfield     CLOUDY    83  71  68 S7        29.99F HX  87
Quincy         CLOUDY    84  66  54 S10       29.98S HX  86
Rockford       CLOUDY    82  66  58 E7        30.01F HX  84
$$


CITY           SKY/WX    TMP DP  RH WIND       PRES   REMARKS
Burlington     CLOUDY    83  69  62 SE10      29.96F HX  86
Cedar Rapids   CLOUDY    77  67  71 S13       29.96R
Des Moines     CLOUDY    78  68  71 W12       29.95R HX  80
Kirksville     MOSUNNY   85  67  54 SW13G25   30.00R HX  87
Ottumwa        CLOUDY    81  65  58 SW9       29.96R HX  83
St Louis       MOSUNNY   90  68  48 VRB7      29.99F HX  94
$$


CITY           SKY/WX    TMP DP  RH WIND       PRES   REMARKS
Terre Haute    MOSUNNY   88  69  53 SE5       30.03F HX  92
Evansville     SUNNY     93  67  42 SW13      30.02F HX  96
Indianapolis   CLOUDY    91  59  33 W6        30.03F HX  90
Lafayette      PTSUNNY   87  67  51 S9        30.03F HX  90
Madison        CLOUDY    78  65  63 SW5       30.00S HX  80
Milwaukee      CLOUDY    84  66  54 W7        30.00F HX  86
$$






USA.gov is the U.S. government's official web portal to all federal, state and local government web resources and services.